| time (UTC) | temp C | wind direction | speed KPH | gust KPH | rain 1hr cm | rain 24hr cm | rain mn cm | humidity % | barometer mb |
| 20260506212903 | 8 | 230 | 1.6 | 8.0 | 0.00 | 0.71 | 0.71 | 90 | 940.4 |
| 20260506212403 | 8 | 224 | 3.2 | 8.0 | 0.00 | 0.71 | 0.71 | 90 | 940.5 |
| 20260506211903 | 8 | 221 | 3.2 | 4.8 | 0.00 | 0.71 | 0.71 | 90 | 940.5 |
| 20260506210903 | 8 | 216 | 4.8 | 8.0 | 0.00 | 0.71 | 0.71 | 89 | 940.6 |
| 20260506210403 | 8 | 210 | 4.8 | 8.0 | 0.00 | 0.71 | 0.71 | 89 | 940.6 |
| 20260506205903 | 8 | 220 | 4.8 | 8.0 | 0.00 | 0.71 | 0.71 | 89 | 940.6 |
| 20260506204904 | 8 | 217 | 1.6 | 8.0 | 0.00 | 0.71 | 0.71 | 88 | 940.4 |
| 20260506204403 | 8 | 213 | 1.6 | 4.8 | 0.00 | 0.71 | 0.71 | 88 | 940.4 |
| 20260506203903 | 8 | 216 | 0.0 | 4.8 | 0.00 | 0.71 | 0.71 | 87 | 940.4 |
| 20260506203404 | 8 | 215 | 0.0 | 3.2 | 0.00 | 0.71 | 0.71 | 87 | 940.4 |
| 20260506202904 | 8 | 216 | 0.0 | 0.0 | 0.00 | 0.71 | 0.71 | 88 | 940.4 |
| 20260506202404 | 8 | 216 | 0.0 | 0.0 | 0.00 | 0.71 | 0.71 | 87 | 940.4 |
| 20260506201903 | 8 | 216 | 0.0 | 0.0 | 0.00 | 0.71 | 0.71 | 87 | 940.4 |
| 20260506200904 | 8 | 216 | 0.0 | 0.0 | 0.00 | 0.71 | 0.71 | 86 | 940.4 |
| 20260506200403 | 8 | 216 | 0.0 | 0.0 | 0.00 | 0.71 | 0.71 | 86 | 940.4 |
| 20260506195904 | 8 | 216 | 0.0 | 0.0 | 0.00 | 0.71 | 0.71 | 85 | 940.4 |
| 20260506195404 | 9 | 214 | 1.6 | 3.2 | 0.00 | 0.71 | 0.71 | 84 | 940.1 |
| 20260506194903 | 9 | 216 | 3.2 | 8.0 | 0.00 | 0.71 | 0.71 | 84 | 940.1 |
| 20260506194404 | 9 | 215 | 3.2 | 8.0 | 0.00 | 0.71 | 0.71 | 83 | 940.1 |
| 20260506193403 | 9 | 225 | 3.2 | 8.0 | 0.00 | 0.71 | 0.71 | 83 | 940.1 |
| 20260506192904 | 9 | 235 | 3.2 | 11.3 | 0.00 | 0.71 | 0.71 | 83 | 940.1 |
| 20260506192404 | 9 | 236 | 4.8 | 11.3 | 0.00 | 0.71 | 0.71 | 83 | 939.8 |
| 20260506191903 | 9 | 231 | 4.8 | 9.7 | 0.00 | 0.71 | 0.71 | 82 | 939.8 |
| 20260506191403 | 9 | 226 | 4.8 | 9.7 | 0.00 | 0.71 | 0.71 | 82 | 939.8 |
| 20260506190903 | 9 | 231 | 4.8 | 9.7 | 0.00 | 0.71 | 0.71 | 82 | 939.7 |
| 20260506190404 | 10 | 265 | 4.8 | 11.3 | 0.00 | 0.71 | 0.71 | 81 | 939.7 |
| 20260506185904 | 10 | 208 | 3.2 | 11.3 | 0.00 | 0.71 | 0.71 | 81 | 939.7 |
| 20260506185404 | 10 | 211 | 3.2 | 4.8 | 0.00 | 0.71 | 0.71 | 81 | 939.5 |
| 20260506184904 | 10 | 195 | 3.2 | 8.0 | 0.00 | 0.71 | 0.71 | 80 | 939.5 |
| 20260506184404 | 10 | 248 | 3.2 | 8.0 | 0.00 | 0.71 | 0.71 | 80 | 939.5 |
| 20260506182904 | 10 | 240 | 1.6 | 1.6 | 0.00 | 0.71 | 0.71 | 79 | 939.4 |
| 20260506182404 | 11 | 243 | 1.6 | 8.0 | 0.00 | 0.71 | 0.71 | 80 | 939.3 |
| 20260506181403 | 11 | 316 | 1.6 | 9.7 | 0.00 | 0.71 | 0.71 | 78 | 939.3 |
| 20260506180910 | 11 | 208 | 0.0 | 0.0 | 0.00 | 0.71 | 0.71 | 78 | 939.2 |
| 20260506180404 | 12 | 152 | 0.0 | 1.6 | 0.00 | 0.71 | 0.71 | 77 | 939.2 |
| 20260506175904 | 12 | 319 | 0.0 | 1.6 | 0.00 | 0.71 | 0.71 | 77 | 939.2 |
| 20260506175404 | 12 | 74 | 1.6 | 1.6 | 0.00 | 0.71 | 0.71 | 77 | 938.9 |
| 20260506174904 | 12 | 240 | 1.6 | 3.2 | 0.00 | 0.71 | 0.71 | 77 | 938.9 |
| 20260506174404 | 12 | 241 | 3.2 | 3.2 | 0.00 | 0.71 | 0.71 | 77 | 938.9 |
| 20260506173903 | 12 | 241 | 4.8 | 11.3 | 0.00 | 0.71 | 0.71 | 77 | 938.6 |
| 20260506172903 | 12 | 257 | 8.0 | 12.9 | 0.00 | 0.71 | 0.71 | 78 | 938.6 |
| 20260506172404 | 12 | 234 | 8.0 | 12.9 | 0.00 | 0.71 | 0.71 | 80 | 938.4 |
| 20260506171903 | 11 | 243 | 11.3 | 16.1 | 0.00 | 0.71 | 0.71 | 81 | 938.4 |
| 20260506171404 | 11 | 236 | 11.3 | 16.1 | 0.00 | 0.71 | 0.71 | 81 | 938.4 |
| 20260506165904 | 11 | 219 | 9.7 | 16.1 | 0.00 | 0.71 | 0.71 | 83 | 938.2 |
| 20260506164903 | 10 | 246 | 9.7 | 16.1 | 0.00 | 0.76 | 0.71 | 84 | 938.3 |
| 20260506164404 | 10 | 240 | 9.7 | 16.1 | 0.00 | 0.76 | 0.71 | 85 | 938.3 |
| 20260506163404 | 10 | 262 | 9.7 | 12.9 | 0.00 | 0.76 | 0.71 | 87 | 938.3 |
| 20260506162904 | 10 | 240 | 12.9 | 16.1 | 0.00 | 0.76 | 0.71 | 87 | 938.3 |
| 20260506161903 | 10 | 248 | 9.7 | 22.5 | 0.00 | 0.76 | 0.71 | 86 | 938.3 |
| 20260506161403 | 10 | 242 | 9.7 | 19.3 | 0.00 | 0.76 | 0.71 | 87 | 938.3 |
| 20260506160404 | 10 | 236 | 11.3 | 14.5 | 0.00 | 0.76 | 0.71 | 88 | 938.3 |
| 20260506155904 | 10 | 234 | 12.9 | 19.3 | 0.00 | 0.76 | 0.71 | 89 | 938.3 |
| 20260506155404 | 10 | 228 | 12.9 | 19.3 | 0.00 | 0.76 | 0.71 | 89 | 938.3 |
| 20260506154904 | 10 | 259 | 11.3 | 19.3 | 0.00 | 0.76 | 0.71 | 89 | 938.3 |
| 20260506154403 | 10 | 253 | 9.7 | 14.5 | 0.00 | 0.76 | 0.71 | 90 | 938.3 |
| 20260506153904 | 10 | 240 | 8.0 | 14.5 | 0.00 | 0.76 | 0.71 | 90 | 938.4 |
| 20260506153403 | 10 | 215 | 8.0 | 11.3 | 0.00 | 0.76 | 0.71 | 90 | 938.4 |
| 20260506152903 | 10 | 209 | 9.7 | 11.3 | 0.00 | 0.76 | 0.71 | 91 | 938.4 |
| 20260506152404 | 10 | 240 | 9.7 | 11.3 | 0.00 | 0.76 | 0.71 | 90 | 938.3 |
| 20260506151403 | 10 | 220 | 9.7 | 12.9 | 0.00 | 0.76 | 0.71 | 91 | 938.3 |
| 20260506150903 | 10 | 249 | 12.9 | 16.1 | 0.00 | 0.76 | 0.71 | 90 | 938.5 |
| 20260506150403 | 10 | 242 | 12.9 | 16.1 | 0.00 | 0.76 | 0.71 | 90 | 938.5 |
| 20260506145903 | 10 | 241 | 11.3 | 16.1 | 0.00 | 0.76 | 0.71 | 90 | 938.5 |
| 20260506145404 | 10 | 243 | 11.3 | 16.1 | 0.00 | 0.76 | 0.71 | 90 | 938.4 |
| 20260506144903 | 10 | 229 | 8.0 | 14.5 | 0.00 | 0.76 | 0.71 | 90 | 938.4 |
| 20260506144404 | 10 | 216 | 8.0 | 11.3 | 0.00 | 0.76 | 0.71 | 91 | 938.4 |
| 20260506143904 | 10 | 217 | 4.8 | 12.9 | 0.00 | 0.76 | 0.71 | 91 | 938.5 |
| 20260506143404 | 10 | 243 | 4.8 | 12.9 | 0.00 | 0.76 | 0.71 | 92 | 938.5 |
| 20260506142404 | 9 | 157 | 3.2 | 20.9 | 0.00 | 0.76 | 0.71 | 93 | 938.3 |
| 20260506141904 | 9 | 209 | 8.0 | 20.9 | 0.00 | 0.76 | 0.71 | 93 | 938.3 |
| 20260506141404 | 9 | 216 | 8.0 | 11.3 | 0.03 | 0.76 | 0.71 | 93 | 938.3 |
| 20260506140904 | 9 | 236 | 9.7 | 11.3 | 0.05 | 0.76 | 0.71 | 93 | 938.1 |
| 20260506140404 | 9 | 245 | 9.7 | 19.3 | 0.08 | 0.76 | 0.71 | 93 | 938.1 |
| 20260506135903 | 9 | 259 | 14.5 | 22.5 | 0.13 | 0.76 | 0.71 | 93 | 938.1 |
| 20260506135404 | 9 | 243 | 14.5 | 25.7 | 0.15 | 0.76 | 0.71 | 93 | 938.1 |
| 20260506134904 | 9 | 248 | 19.3 | 25.7 | 0.18 | 0.76 | 0.71 | 93 | 938.1 |
| 20260506134404 | 9 | 255 | 19.3 | 24.1 | 0.20 | 0.76 | 0.71 | 93 | 938.1 |
| 20260506133903 | 9 | 258 | 20.9 | 24.1 | 0.23 | 0.76 | 0.71 | 93 | 938.1 |
| 20260506133404 | 8 | 251 | 20.9 | 24.1 | 0.25 | 0.76 | 0.71 | 93 | 938.1 |
| 20260506132904 | 8 | 231 | 24.1 | 33.8 | 0.33 | 0.76 | 0.71 | 93 | 938.1 |
| 20260506132404 | 8 | 233 | 24.1 | 33.8 | 0.43 | 0.76 | 0.71 | 93 | 937.9 |
| 20260506131403 | 9 | 232 | 20.9 | 25.7 | 0.48 | 0.74 | 0.69 | 92 | 937.9 |
| 20260506130903 | 9 | 231 | 25.7 | 25.7 | 0.48 | 0.71 | 0.66 | 92 | 937.5 |
| 20260506125904 | 9 | 240 | 25.7 | 27.4 | 0.43 | 0.64 | 0.58 | 91 | 937.5 |
| 20260506125404 | 9 | 239 | 25.7 | 32.2 | 0.46 | 0.61 | 0.56 | 90 | 937.3 |
| 20260506124404 | 10 | 229 | 25.7 | 38.6 | 0.48 | 0.56 | 0.51 | 89 | 937.3 |
| 20260506123904 | 10 | 231 | 27.4 | 38.6 | 0.48 | 0.53 | 0.48 | 89 | 936.9 |
| 20260506123404 | 10 | 245 | 27.4 | 53.1 | 0.46 | 0.51 | 0.46 | 88 | 936.9 |
| 20260506122904 | 11 | 248 | 14.5 | 53.1 | 0.38 | 0.43 | 0.38 | 87 | 936.9 |
| 20260506122404 | 11 | 260 | 14.5 | 27.4 | 0.28 | 0.33 | 0.28 | 91 | 936.5 |
| 20260506121904 | 11 | 247 | 14.5 | 22.5 | 0.23 | 0.28 | 0.23 | 89 | 936.5 |
| 20260506120904 | 11 | 247 | 16.1 | 20.9 | 0.18 | 0.23 | 0.18 | 88 | 936.3 |
| 20260506115904 | 12 | 237 | 14.5 | 19.3 | 0.15 | 0.20 | 0.15 | 85 | 936.3 |
| 20260506115404 | 12 | 249 | 14.5 | 19.3 | 0.10 | 0.15 | 0.10 | 82 | 936.1 |
| 20260506114903 | 12 | 257 | 9.7 | 19.3 | 0.05 | 0.10 | 0.05 | 81 | 936.1 |
| 20260506114403 | 12 | 263 | 9.7 | 19.3 | 0.03 | 0.08 | 0.03 | 80 | 936.1 |
| 20260506113904 | 13 | 253 | 11.3 | 14.5 | 0.00 | 0.05 | 0.00 | 79 | 935.9 |
| 20260506113403 | 13 | 269 | 11.3 | 14.5 | 0.00 | 0.05 | 0.00 | 78 | 935.9 |
| 20260506112903 | 13 | 247 | 11.3 | 16.1 | 0.00 | 0.05 | 0.00 | 78 | 935.9 |
| 20260506112403 | 13 | 223 | 11.3 | 16.1 | 0.00 | 0.05 | 0.00 | 77 | 936.0 |
| 20260506110903 | 14 | 252 | 8.0 | 12.9 | 0.00 | 0.05 | 0.00 | 74 | 935.9 |
| 20260506110404 | 15 | 270 | 8.0 | 16.1 | 0.00 | 0.05 | 0.00 | 74 | 935.9 |
| 20260506104904 | 15 | 7 | 4.8 | 11.3 | 0.00 | 0.05 | 0.00 | 75 | 936.1 |
| 20260506104403 | 15 | 1 | 4.8 | 11.3 | 0.00 | 0.05 | 0.00 | 76 | 936.1 |
| 20260506103904 | 14 | 333 | 3.2 | 9.7 | 0.00 | 0.05 | 0.00 | 75 | 936.1 |
| 20260506103404 | 14 | 316 | 3.2 | 8.0 | 0.00 | 0.05 | 0.00 | 71 | 936.1 |
| 20260506102904 | 14 | 302 | 3.2 | 8.0 | 0.00 | 0.05 | 0.00 | 74 | 936.1 |
| 20260506102404 | 14 | 28 | 3.2 | 8.0 | 0.00 | 0.05 | 0.00 | 75 | 936.1 |
| 20260506101403 | 15 | 254 | 4.8 | 11.3 | 0.00 | 0.05 | 0.00 | 75 | 936.1 |
| 20260506100904 | 15 | 337 | 8.0 | 11.3 | 0.00 | 0.05 | 0.00 | 75 | 936.2 |
| 20260506100404 | 15 | 256 | 8.0 | 11.3 | 0.00 | 0.05 | 0.00 | 75 | 936.2 |
| 20260506095404 | 14 | 234 | 3.2 | 9.7 | 0.00 | 0.05 | 0.00 | 76 | 936.3 |
| 20260506094904 | 14 | 335 | 3.2 | 8.0 | 0.00 | 0.05 | 0.00 | 80 | 936.3 |
| 20260506093903 | 13 | 281 | 4.8 | 8.0 | 0.00 | 0.05 | 0.00 | 78 | 936.3 |
| 20260506093403 | 13 | 340 | 4.8 | 11.3 | 0.00 | 0.05 | 0.00 | 79 | 936.3 |
| 20260506092904 | 13 | 290 | 3.2 | 11.3 | 0.00 | 0.05 | 0.00 | 79 | 936.3 |
| 20260506091904 | 13 | 316 | 3.2 | 4.8 | 0.00 | 0.05 | 0.00 | 81 | 936.1 |
| 20260506091404 | 13 | 311 | 3.2 | 4.8 | 0.00 | 0.05 | 0.00 | 83 | 936.1 |
| 20260506090904 | 13 | 353 | 0.0 | 4.8 | 0.00 | 0.05 | 0.00 | 83 | 936.1 |
| 20260506090404 | 13 | 257 | 0.0 | 3.2 | 0.00 | 0.05 | 0.00 | 86 | 936.1 |
| 20260506085903 | 13 | 332 | 3.2 | 3.2 | 0.00 | 0.05 | 0.00 | 85 | 936.1 |
| 20260506084903 | 13 | 332 | 0.0 | 8.0 | 0.00 | 0.05 | 0.00 | 83 | 936.2 |
| 20260506084404 | 13 | 352 | 0.0 | 8.0 | 0.00 | 0.05 | 0.00 | 83 | 936.2 |
| 20260506083904 | 13 | 80 | 0.0 | 0.0 | 0.00 | 0.05 | 0.00 | 84 | 936.3 |
| 20260506083404 | 13 | 137 | 0.0 | 0.0 | 0.00 | 0.05 | 0.00 | 84 | 936.3 |
| 20260506082904 | 13 | 137 | 0.0 | 0.0 | 0.00 | 0.05 | 0.00 | 83 | 936.3 |
| 20260506082403 | 13 | 157 | 0.0 | 0.0 | 0.00 | 0.05 | 0.00 | 83 | 936.1 |
| 20260506081904 | 13 | 265 | 0.0 | 0.0 | 0.00 | 0.05 | 0.00 | 82 | 936.1 |
| 20260506081404 | 13 | 264 | 0.0 | 0.0 | 0.00 | 0.05 | 0.00 | 83 | 936.1 |
| 20260506080403 | 13 | 102 | 0.0 | 0.0 | 0.00 | 0.05 | 0.00 | 86 | 936.2 |
| 20260506072904 | 12 | 102 | 0.0 | 0.0 | 0.00 | 0.05 | 0.00 | 85 | 936.2 |
| 20260506072403 | 12 | 102 | 0.0 | 0.0 | 0.00 | 0.05 | 0.00 | 85 | 936.3 |
| 20260506071903 | 12 | 102 | 0.0 | 0.0 | 0.00 | 0.05 | 0.00 | 85 | 936.3 |
| 20260506071404 | 12 | 102 | 0.0 | 0.0 | 0.00 | 0.05 | 0.00 | 86 | 936.3 |
| 20260506062404 | 11 | 103 | 3.2 | 3.2 | 0.00 | 0.05 | 0.00 | 87 | 936.3 |
| 20260506061904 | 11 | 102 | 1.6 | 8.0 | 0.00 | 0.05 | 0.00 | 87 | 936.3 |
| 20260506061403 | 11 | 102 | 1.6 | 8.0 | 0.00 | 0.05 | 0.00 | 87 | 936.3 |
| 20260506060904 | 11 | 111 | 1.6 | 8.0 | 0.00 | 0.05 | 0.00 | 86 | 936.1 |
| 20260506060404 | 11 | 235 | 1.6 | 3.2 | 0.00 | 0.05 | 0.00 | 85 | 936.1 |
| 20260506051404 | 10 | 234 | 3.2 | 4.8 | 0.00 | 0.05 | 0.00 | 85 | 936.2 |
| 20260506050903 | 10 | 234 | 3.2 | 4.8 | 0.00 | 0.05 | 0.00 | 85 | 936.2 |
| 20260506050404 | 10 | 235 | 3.2 | 8.0 | 0.00 | 0.05 | 0.00 | 85 | 936.2 |
| 20260506044904 | 10 | 222 | 3.2 | 8.0 | 0.00 | 0.05 | 0.00 | 84 | 936.2 |
| 20260506044404 | 10 | 223 | 3.2 | 8.0 | 0.00 | 0.05 | 0.00 | 84 | 936.2 |
| 20260506043403 | 10 | 219 | 0.0 | 3.2 | 0.00 | 0.05 | 0.00 | 84 | 936.3 |
| 20260506042903 | 10 | 219 | 3.2 | 3.2 | 0.00 | 0.05 | 0.00 | 84 | 936.3 |
| 20260506041404 | 10 | 219 | 3.2 | 4.8 | 0.00 | 0.05 | 0.00 | 83 | 936.4 |
| 20260506040903 | 10 | 219 | 3.2 | 4.8 | 0.00 | 0.05 | 0.00 | 83 | 936.6 |
| 20260506040404 | 10 | 218 | 3.2 | 8.0 | 0.00 | 0.05 | 0.00 | 83 | 936.6 |
| 20260506035904 | 10 | 218 | 3.2 | 8.0 | 0.00 | 0.05 | 0.00 | 83 | 936.6 |
| 20260506035403 | 10 | 225 | 3.2 | 4.8 | 0.00 | 0.05 | 0.00 | 83 | 936.8 |
| 20260506034904 | 10 | 225 | 3.2 | 4.8 | 0.00 | 0.05 | 0.00 | 83 | 936.8 |
| 20260506033403 | 11 | 226 | 0.0 | 4.8 | 0.00 | 0.05 | 0.00 | 82 | 936.9 |
| 20260506032403 | 11 | 222 | 0.0 | 3.2 | 0.00 | 0.05 | 0.00 | 83 | 937.0 |
| 20260506031904 | 11 | 222 | 3.2 | 3.2 | 0.00 | 0.05 | 0.00 | 82 | 937.0 |
| 20260506031404 | 11 | 222 | 3.2 | 4.8 | 0.00 | 0.05 | 0.00 | 82 | 937.0 |
| 20260506030904 | 11 | 224 | 3.2 | 4.8 | 0.00 | 0.05 | 0.00 | 82 | 937.1 |
| 20260506030403 | 11 | 225 | 3.2 | 4.8 | 0.00 | 0.05 | 0.00 | 82 | 937.1 |
| 20260506025903 | 11 | 225 | 0.0 | 4.8 | 0.00 | 0.05 | 0.00 | 83 | 937.1 |
| 20260506025403 | 11 | 226 | 0.0 | 4.8 | 0.00 | 0.05 | 0.00 | 83 | 937.3 |
| 20260506024404 | 11 | 226 | 0.0 | 0.0 | 0.00 | 0.05 | 0.00 | 82 | 937.3 |
| 20260506023904 | 11 | 226 | 3.2 | 3.2 | 0.00 | 0.05 | 0.00 | 81 | 937.5 |
| 20260506022904 | 11 | 226 | 3.2 | 8.0 | 0.00 | 0.05 | 0.00 | 81 | 937.5 |
| 20260506022404 | 11 | 226 | 3.2 | 8.0 | 0.00 | 0.05 | 0.00 | 81 | 937.6 |
| 20260506021903 | 11 | 225 | 3.2 | 4.8 | 0.00 | 0.05 | 0.00 | 81 | 937.6 |
| 20260506021404 | 11 | 224 | 3.2 | 4.8 | 0.00 | 0.05 | 0.00 | 81 | 937.6 |
| 20260506020403 | 11 | 271 | 0.0 | 3.2 | 0.00 | 0.05 | 0.00 | 80 | 937.6 |
| 20260506015903 | 11 | 274 | 0.0 | 0.0 | 0.00 | 0.05 | 0.00 | 80 | 937.6 |
| 20260506015404 | 11 | 275 | 0.0 | 3.2 | 0.00 | 0.05 | 0.00 | 80 | 937.8 |
| 20260506014903 | 11 | 275 | 3.2 | 8.0 | 0.00 | 0.05 | 0.00 | 80 | 937.8 |
| 20260506013903 | 11 | 274 | 3.2 | 8.0 | 0.00 | 0.05 | 0.00 | 79 | 937.9 |
| 20260506013404 | 11 | 210 | 3.2 | 8.0 | 0.00 | 0.05 | 0.00 | 80 | 937.9 |
| 20260506012904 | 11 | 208 | 3.2 | 8.0 | 0.00 | 0.05 | 0.00 | 80 | 937.9 |
| 20260506012404 | 11 | 153 | 3.2 | 8.0 | 0.00 | 0.05 | 0.00 | 80 | 938.0 |
| 20260506011904 | 11 | 115 | 1.6 | 8.0 | 0.00 | 0.05 | 0.00 | 80 | 938.0 |
| 20260506011403 | 11 | 111 | 1.6 | 8.0 | 0.00 | 0.05 | 0.00 | 79 | 938.0 |
| 20260506010903 | 11 | 188 | 1.6 | 3.2 | 0.00 | 0.05 | 0.00 | 79 | 938.0 |
| 20260506010403 | 11 | 201 | 1.6 | 4.8 | 0.00 | 0.05 | 0.00 | 79 | 938.0 |
| 20260506005903 | 11 | 201 | 4.8 | 9.7 | 0.00 | 0.05 | 0.00 | 78 | 938.0 |
| 20260506005403 | 11 | 201 | 4.8 | 9.7 | 0.00 | 0.05 | 0.00 | 78 | 938.1 |
| 20260506004904 | 11 | 207 | 3.2 | 9.7 | 0.00 | 0.05 | 0.00 | 79 | 938.1 |
| 20260506004404 | 11 | 208 | 3.2 | 4.8 | 0.00 | 0.05 | 0.00 | 79 | 938.1 |
| 20260506003904 | 11 | 210 | 3.2 | 4.8 | 0.00 | 0.05 | 0.00 | 79 | 938.2 |
| 20260506003404 | 11 | 211 | 3.2 | 4.8 | 0.00 | 0.05 | 0.00 | 79 | 938.2 |
| 20260506002904 | 11 | 207 | 4.8 | 8.0 | 0.00 | 0.05 | 0.00 | 78 | 938.2 |
| 20260506002403 | 11 | 206 | 4.8 | 8.0 | 0.00 | 0.05 | 0.00 | 78 | 938.5 |
| 20260506001903 | 11 | 208 | 4.8 | 8.0 | 0.00 | 0.05 | 0.00 | 78 | 938.5 |
| 20260506001404 | 11 | 191 | 4.8 | 8.0 | 0.00 | 0.05 | 0.00 | 77 | 938.5 |
| 20260506000903 | 12 | 133 | 3.2 | 9.7 | 0.00 | 0.05 | 0.00 | 77 | 938.7 |
| 20260506000403 | 12 | 182 | 3.2 | 9.7 | 0.00 | 0.05 | 0.00 | 77 | 938.7 |
| 20260505235904 | 12 | 208 | 3.2 | 9.7 | 0.00 | 0.05 | 0.00 | 77 | 938.7 |
| 20260505234904 | 12 | 97 | 3.2 | 8.0 | 0.00 | 0.05 | 0.00 | 76 | 938.5 |
| 20260505234403 | 12 | 212 | 3.2 | 8.0 | 0.00 | 0.05 | 0.00 | 75 | 938.5 |
| 20260505233903 | 12 | 203 | 3.2 | 8.0 | 0.00 | 0.05 | 0.00 | 75 | 938.7 |
| 20260505233404 | 12 | 212 | 3.2 | 8.0 | 0.00 | 0.05 | 0.00 | 75 | 938.7 |
| 20260505232903 | 12 | 186 | 3.2 | 4.8 | 0.00 | 0.05 | 0.00 | 75 | 938.7 |
| 20260505232404 | 12 | 146 | 3.2 | 8.0 | 0.00 | 0.05 | 0.00 | 75 | 938.7 |
| 20260505231403 | 12 | 201 | 8.0 | 9.7 | 0.00 | 0.05 | 0.00 | 76 | 938.7 |
| 20260505230904 | 12 | 229 | 3.2 | 11.3 | 0.00 | 0.05 | 0.00 | 76 | 938.8 |
| 20260505230405 | 12 | 227 | 3.2 | 11.3 | 0.00 | 0.05 | 0.00 | 76 | 938.8 |
| 20260505225903 | 12 | 216 | 6.4 | 8.0 | 0.00 | 0.05 | 0.00 | 77 | 938.8 |
| 20260505225404 | 12 | 116 | 8.0 | 8.0 | 0.00 | 0.05 | 0.00 | 77 | 938.8 |
| 20260505224903 | 12 | 170 | 8.0 | 11.3 | 0.00 | 0.05 | 0.00 | 76 | 938.8 |
| 20260505224404 | 12 | 211 | 8.0 | 11.3 | 0.00 | 0.05 | 0.00 | 77 | 938.8 |
| 20260505223404 | 12 | 211 | 4.8 | 8.0 | 0.00 | 0.05 | 0.00 | 77 | 938.8 |
| 20260505222904 | 12 | 210 | 8.0 | 9.7 | 0.00 | 0.05 | 0.00 | 77 | 938.8 |
| 20260505221403 | 12 | 212 | 4.8 | 9.7 | 0.00 | 0.05 | 0.00 | 77 | 938.9 |
| 20260505220903 | 12 | 194 | 4.8 | 9.7 | 0.00 | 0.05 | 0.00 | 77 | 939.0 |
| 20260505220403 | 12 | 189 | 4.8 | 9.7 | 0.00 | 0.05 | 0.00 | 77 | 939.0 |
| 20260505215903 | 12 | 211 | 8.0 | 8.0 | 0.00 | 0.05 | 0.05 | 77 | 939.0 |
| 20260505215404 | 12 | 212 | 8.0 | 9.7 | 0.00 | 0.05 | 0.05 | 77 | 939.2 |
| 20260505214904 | 12 | 221 | 8.0 | 11.3 | 0.00 | 0.05 | 0.05 | 77 | 939.2 |
| 20260505214403 | 12 | 203 | 8.0 | 11.3 | 0.00 | 0.05 | 0.05 | 77 | 939.2 |